sat.trackr.live / text

‹ back to catalog

STARLINK-30229

NORAD 57461 · 2023-107E

PAYLOAD ACTIVE UNKNOWN

§ Identity

Operator
Country
US
Launch date
2023-07-28
Launch site
AFETR
Launch vehicle
Mass (kg)
RCS (m²)

Purposes: comms

External: N2YO · Heavens-Above · Gunter

§ Orbital elements

Epoch: 2026-09-20T21:21:53.045856Z

Period
94.27 min
Inclination
43.0062°
Eccentricity
0.0001692
Mean motion
15.27577938 rev/d
Perigee alt
481.9 km
Apogee alt
484.2 km
Semi-major
6,861.2 km
B*
3.4139e-5
RAAN
321.1264°
Arg perigee
275.8596°
Mean anomaly
84.2063°
Rev number
17,491

§ Raw data

STARLINK-302291 57461U 23107E   26263.89019729  .00000677  00000+0  34139-4 0  99932 57461  43.0062 321.1264 0001692 275.8596  84.2063 15.27577938174918

JSON: /api/v1/satellites/57461 · /tle

For live sub-satellite position, see the globe view (requires WebGL).

§ Visibility from observer

Set your observer location to see the next 7 days of passes ≥ 10°. The values pass through the URL so the page stays shareable.

No JS? Fill the form by hand. The geolocation button needs JavaScript.